Meteo pe oră la Abancay

Astăzi, 29 Iulie, Joi

Timp Temperatura Precipitaţii Vânt Presiune Umiditate
00:00 +10°C° 0 mm 1 m/s 543 mmHg 90%
01:00 +11°C° 0 mm 1 m/s 544 mmHg 89%
02:00 +11°C° 0 mm 1 m/s 543 mmHg 90%
03:00 +11°C° 0 mm 1 m/s 543 mmHg 90%
04:00 +10°C° 0 mm 1 m/s 543 mmHg 90%
05:00 +11°C° 0 mm 1 m/s 543 mmHg 87%
06:00 +11°C° 0 mm 1 m/s 543 mmHg 85%
07:00 +10°C° 0 mm 0 m/s 544 mmHg 82%
08:00 +12°C° 0 mm 1 m/s 544 mmHg 74%
09:00 +13°C° 0 mm 2 m/s 545 mmHg 67%
10:00 +15°C° 0 mm 2 m/s 546 mmHg 60%
11:00 +16°C° 0 mm 2 m/s 546 mmHg 56%
12:00 +17°C° 0 mm 3 m/s 545 mmHg 51%
13:00 +18°C° 0 mm 3 m/s 545 mmHg 47%
14:00 +18°C° 0 mm 3 m/s 545 mmHg 50%
15:00 +17°C° 0 mm 3 m/s 544 mmHg 52%
16:00 +17°C° 0 mm 3 m/s 543 mmHg 55%
17:00 +14°C° 0 mm 3 m/s 543 mmHg 66%
18:00 +13°C° 0 mm 2 m/s 543 mmHg 78%
19:00 +10°C° 0 mm 2 m/s 542 mmHg 90%
20:00 +10°C° 0 mm 2 m/s 543 mmHg 90%
21:00 +11°C° 0 mm 1 m/s 543 mmHg 90%
22:00 +11°C° 0 mm 1 m/s 544 mmHg 90%
23:00 +11°C° 0 mm 1 m/s 543 mmHg 88%

Mâine, 30 Iulie, Vineri

Timp Temperatura Precipitaţii Vânt Presiune Umiditate
00:00 +11°C° 0 mm 1 m/s 543 mmHg 87%
01:00 +11°C° 0 mm 1 m/s 543 mmHg 85%
02:00 +11°C° 0 mm 1 m/s 543 mmHg 84%
03:00 +10°C° 0 mm 1 m/s 543 mmHg 83%
04:00 +10°C° 0 mm 1 m/s 543 mmHg 82%
05:00 +10°C° 0 mm 1 m/s 543 mmHg 81%
06:00 +11°C° 0 mm 1 m/s 544 mmHg 79%
07:00 +11°C° 0 mm 1 m/s 544 mmHg 77%
08:00 +12°C° 0 mm 1 m/s 545 mmHg 72%
09:00 +13°C° 0 mm 1 m/s 545 mmHg 66%
10:00 +14°C° 0 mm 2 m/s 546 mmHg 61%
11:00 +15°C° 0 mm 2 m/s 546 mmHg 56%
12:00 +16°C° 0 mm 3 m/s 546 mmHg 52%
13:00 +18°C° 0 mm 3 m/s 545 mmHg 48%
14:00 +17°C° 0 mm 3 m/s 545 mmHg 50%
15:00 +17°C° 0 mm 3 m/s 544 mmHg 51%
16:00 +17°C° 0 mm 3 m/s 544 mmHg 53%
17:00 +15°C° 0 mm 2 m/s 544 mmHg 63%
18:00 +13°C° 0 mm 2 m/s 543 mmHg 74%
19:00 +10°C° 0 mm 2 m/s 543 mmHg 84%
20:00 +10°C° 0 mm 2 m/s 543 mmHg 86%
21:00 +11°C° 0 mm 1 m/s 544 mmHg 89%
22:00 +10°C° 0 mm 1 m/s 544 mmHg 91%
23:00 +10°C° 0 mm 1 m/s 544 mmHg 89%

Poimâine, 31 Iulie, Sâmbătă

Timp Temperatura Precipitaţii Vânt Presiune Umiditate
00:00 +10°C° 0 mm 1 m/s 544 mmHg 88%
01:00 +11°C° 0 mm 1 m/s 544 mmHg 87%
02:00 +10°C° 0 mm 1 m/s 544 mmHg 85%
03:00 +10°C° 0 mm 1 m/s 544 mmHg 84%
04:00 +9°C° 0 mm 0 m/s 544 mmHg 83%
05:00 +10°C° 0 mm 0 m/s 544 mmHg 81%
06:00 +10°C° 0 mm 0 m/s 544 mmHg 78%
07:00 +10°C° 0 mm 0 m/s 545 mmHg 76%
08:00 +13°C° 0 mm 1 m/s 545 mmHg 67%
09:00 +15°C° 0 mm 1 m/s 546 mmHg 58%
10:00 +17°C° 0 mm 2 m/s 547 mmHg 48%
11:00 +18°C° 0 mm 2 m/s 546 mmHg 45%
12:00 +19°C° 0 mm 3 m/s 546 mmHg 42%
13:00 +20°C° 0 mm 3 m/s 546 mmHg 38%
14:00 +19°C° 0 mm 3 m/s 545 mmHg 42%
15:00 +18°C° 0 mm 3 m/s 545 mmHg 45%
16:00 +18°C° 0 mm 3 m/s 545 mmHg 49%
17:00 +16°C° 0 mm 3 m/s 544 mmHg 57%
18:00 +14°C° 0 mm 2 m/s 544 mmHg 65%
19:00 +12°C° 0 mm 2 m/s 544 mmHg 73%
20:00 +12°C° 0 mm 2 m/s 544 mmHg 77%
21:00 +10°C° 0 mm 2 m/s 545 mmHg 82%
22:00 +11°C° 0 mm 1 m/s 545 mmHg 86%
23:00 +11°C° 0 mm 1 m/s 545 mmHg 87%

1 August, Duminică

Timp Temperatura Precipitaţii Vânt Presiune Umiditate
00:00 +10°C° 0 mm 1 m/s 545 mmHg 89%
01:00 +10°C° 0 mm 1 m/s 544 mmHg 90%
02:00 +10°C° 0 mm 1 m/s 544 mmHg 89%
03:00 +8°C° 0 mm 0 m/s 544 mmHg 88%
04:00 +8°C° 0 mm 0 m/s 544 mmHg 87%
05:00 +8°C° 0 mm 0 m/s 544 mmHg 85%
06:00 +9°C° 0 mm 0 m/s 545 mmHg 83%
07:00 +9°C° 0 mm 0 m/s 546 mmHg 80%
08:00 +12°C° 0 mm 1 m/s 546 mmHg 71%
09:00 +14°C° 0 mm 2 m/s 547 mmHg 61%
10:00 +16°C° 0 mm 3 m/s 548 mmHg 51%
11:00 +17°C° 0.1 mm 3 m/s 548 mmHg 49%
12:00 +17°C° 0.1 mm 3 m/s 547 mmHg 48%
13:00 +18°C° 0.1 mm 3 m/s 547 mmHg 46%
14:00 +17°C° 0.2 mm 3 m/s 547 mmHg 49%
15:00 +17°C° 0.2 mm 3 m/s 546 mmHg 52%
16:00 +16°C° 0.2 mm 3 m/s 546 mmHg 55%
17:00 +15°C° 0.1 mm 2 m/s 546 mmHg 62%
18:00 +14°C° 0.1 mm 2 m/s 546 mmHg 69%
19:00 +12°C° 0.1 mm 2 m/s 546 mmHg 77%
20:00 +12°C° 0 mm 2 m/s 546 mmHg 81%
21:00 +10°C° 0 mm 2 m/s 546 mmHg 85%
22:00 +9°C° 0 mm 2 m/s 546 mmHg 89%
23:00 +10°C° 0 mm 1 m/s 546 mmHg 90%

2 August, Luni

Timp Temperatura Precipitaţii Vânt Presiune Umiditate
00:00 +10°C° 0 mm 1 m/s 546 mmHg 90%
01:00 +9°C° 0 mm 1 m/s 545 mmHg 90%
02:00 +9°C° 0 mm 1 m/s 545 mmHg 89%
03:00 +9°C° 0 mm 1 m/s 545 mmHg 88%
04:00 +9°C° 0 mm 1 m/s 545 mmHg 87%
05:00 +9°C° 0 mm 1 m/s 545 mmHg 85%
06:00 +9°C° 0 mm 1 m/s 545 mmHg 84%
07:00 +9°C° 0 mm 1 m/s 546 mmHg 82%
08:00 +11°C° 0 mm 1 m/s 547 mmHg 75%
09:00 +12°C° 0 mm 1 m/s 547 mmHg 67%
10:00 +14°C° 0 mm 2 m/s 548 mmHg 60%
11:00 +15°C° 0 mm 2 m/s 548 mmHg 55%
12:00 +16°C° 0 mm 2 m/s 548 mmHg 50%
13:00 +17°C° 0 mm 3 m/s 548 mmHg 45%
14:00 +17°C° 0 mm 3 m/s 547 mmHg 44%
15:00 +17°C° 0 mm 3 m/s 547 mmHg 44%
16:00 +17°C° 0 mm 3 m/s 546 mmHg 43%
17:00 +14°C° 0 mm 3 m/s 546 mmHg 55%
18:00 +13°C° 0 mm 2 m/s 545 mmHg 67%
19:00 +10°C° 0 mm 2 m/s 545 mmHg 80%
20:00 +9°C° 0 mm 2 m/s 545 mmHg 83%
21:00 +10°C° 0 mm 1 m/s 545 mmHg 86%
22:00 +10°C° 0 mm 1 m/s 545 mmHg 89%
23:00 +10°C° 0 mm 1 m/s 545 mmHg 88%

3 August, Marţi

Timp Temperatura Precipitaţii Vânt Presiune Umiditate
00:00 +10°C° 0 mm 1 m/s 545 mmHg 87%
01:00 +8°C° 0 mm 0 m/s 545 mmHg 86%
02:00 +9°C° 0 mm 0 m/s 545 mmHg 84%
03:00 +9°C° 0 mm 0 m/s 545 mmHg 82%
04:00 +9°C° 0 mm 0 m/s 544 mmHg 79%
05:00 +9°C° 0 mm 0 m/s 545 mmHg 78%
06:00 +10°C° 0 mm 1 m/s 545 mmHg 76%
07:00 +10°C° 0 mm 1 m/s 546 mmHg 74%
08:00 +11°C° 0 mm 1 m/s 546 mmHg 69%
09:00 +12°C° 0 mm 1 m/s 547 mmHg 64%
10:00 +13°C° 0 mm 2 m/s 548 mmHg 59%
11:00 +15°C° 0 mm 2 m/s 547 mmHg 55%
12:00 +16°C° 0 mm 2 m/s 547 mmHg 50%
13:00 +17°C° 0 mm 3 m/s 547 mmHg 45%
14:00 +17°C° 0.1 mm 3 m/s 546 mmHg 47%
15:00 +17°C° 0.1 mm 3 m/s 546 mmHg 48%
16:00 +16°C° 0.1 mm 3 m/s 545 mmHg 49%
17:00 +13°C° 0 mm 3 m/s 545 mmHg 60%
18:00 +13°C° 0 mm 2 m/s 545 mmHg 72%
19:00 +11°C° 0 mm 1 m/s 544 mmHg 83%
20:00 +10°C° 0.1 mm 1 m/s 545 mmHg 85%
21:00 +10°C° 0.1 mm 1 m/s 545 mmHg 88%
22:00 +10°C° 0.1 mm 1 m/s 545 mmHg 90%
23:00 +8°C° 0 mm 0 m/s 545 mmHg 91%
Arată mai mult

Formular de consimțământ

Meteoprog și furnizorii noștri de servicii pot stoca și accesa date personale, precum cookies, identificatori de dispozitiv sau alte tehnologii similare pe dispozitivul dumneavoastră și procesa astfel de date pentru a personaliza conținutul și reclamele, dar și pentru a oferi caracteristici de social media și pentru a analiza traficul.

  • Stocarea și/sau accesarea informațiilor pe dispozitivul dumneavoastră

    Cookies, identificatori de dispozitiv sau alte informații pot fi stocate sau accesate pe dispozitiv în scopurile indicate mai sus.

  • Reclame și conținut personalizat, evaluarea reclamelor și a conținutului, informații despre audiențe și dezvoltarea produselor

    Reclamele și conținutul pot fi personalizate pe baza unui profil. Pot fi adăugate date suplimentare pentru a personaliza mai bine reclamele și conținutul. Performanța reclamelor și conținutului poate fi măsurată. Pot fi obținute informații despre utilizatorii care au văzut reclamele și conținutul. Aceste date pot fi utilizate pentru a dezvolta sau îmbunătăți experiența utilizatorilor, sistemele și software-ul.

Dând clic pe ‘Sunt de acord’, permiteți utilizarea cookie-urilor menționate, a identificatorilor de dispozitiv, balizelor web sau altor tehnologii similare. Setările pot fi modificate din browser-ul dispozitivului dumneavoastră.

În anumite scopuri, interesele legitime pot prima asupra consimțământului. Puteți citi mai multe informații în acest sens în Politica privind Confidențialitatea Datelor și Cookie.